Meridian, MS

9:57 AM CDT on June 25, 2017 (GMT -0500)
Key

Weather History for KMEI - February, 2013

Change the Weather History Date:

Thursday, February 28, 2013

  Actual Average Record
Temperature  
Mean Temperature 42 °F 52 °F  
Max Temperature 53 °F 65 °F 84 °F (1981)
Min Temperature 31 °F 39 °F 17 °F (2002)
Degree Days  
Heating Degree Days 23 13  
Month to date heating degree days 454 459  
Since 1 July heating degree days 1887 2097  
Cooling Degree Days 0 0  
Month to date cooling degree days 0 4  
Year to date cooling degree days 16 7  
Moisture  
Dew Point 31 °F    
Average Humidity 69    
Maximum Humidity 100    
Minimum Humidity 38    
Precipitation  
Precipitation 0.00 in 0.19 in 3.68 in (1907)
Month to date precipitation 9.07 5.60  
Year to date precipitation 18.83 10.73  
Sea Level Pressure  
Sea Level Pressure 30.06 in    
Wind  
Wind Speed 6 mph (NW)    
Max Wind Speed 16 mph    
Max Gust Speed 23 mph    
Visibility 10 miles    
Events      
T = Trace of Precipitation, MM = Missing Value Source: NWS Daily Summary

Daily Weather History Graph

Daily Weather History Graph

Search for Another Location

Airport or City:

Trip Planner

Search our weather history database for the weather conditions in past years. The results will help you decide how hot, cold, wet, or windy it might be!

Date:

Astronomy

Feb. 28, 2013 Rise Set
Actual Time 6:23 AM CST 5:51 PM CST
Civil Twilight 5:58 AM CST 6:16 PM CST
Nautical Twilight 5:30 AM CST 6:45 PM CST
Astronomical Twilight 5:01 AM CST 7:13 PM CST
Moon 9:03 PM CST (2/28) 7:46 AM CST (2/28)
Length of Visible Light 12h 17m
Length of Day
11h 28m
Waning Gibbous, 90% of the Moon is Illuminated
Feb 28
Waning Gibbous
Mar 4
Last Quarter
Mar 11
New
Mar 19
First Quarter
Mar 27
Full

Hourly Weather History & Observations

Time (CST) Temp. Windchill Dew Point Humidity Pressure Visibility Wind Dir Wind Speed Gust Speed Precip Events Conditions
12:58 AM 43.0 °F 38.8 °F 37.0 °F 80% 30.03 in 10.0 mi NNW 6.9 mph - N/A   Clear
1:58 AM 37.9 °F 35.5 °F 35.1 °F 89% 30.02 in 10.0 mi SSW 3.5 mph - N/A   Clear
2:58 AM 36.0 °F 32.1 °F 34.0 °F 93% 30.01 in 9.0 mi SSW 4.6 mph - N/A   Clear
3:58 AM 34.0 °F 31.0 °F 34.0 °F 100% 30.02 in 10.0 mi SSW 3.5 mph - N/A   Clear
4:58 AM 33.1 °F - 32.0 °F 96% 30.04 in 8.0 mi Calm Calm - N/A   Clear
5:58 AM 33.1 °F - 32.0 °F 96% 30.04 in 6.0 mi Calm Calm - N/A   Clear
6:58 AM 35.1 °F 31.0 °F 33.1 °F 92% 30.06 in 9.0 mi NW 4.6 mph - N/A   Clear
7:58 AM 39.9 °F 32.9 °F 33.1 °F 77% 30.08 in 10.0 mi NNW 11.5 mph 17.3 mph N/A   Clear
8:58 AM 42.1 °F 37.1 °F 30.0 °F 62% 30.09 in 10.0 mi North 8.1 mph - N/A   Clear
9:58 AM 45.0 °F 41.2 °F 28.9 °F 53% 30.10 in 10.0 mi West 6.9 mph - N/A   Clear
10:58 AM 50.0 °F - 30.2 °F 47% 30.09 in 10.0 mi WNW 13.8 mph 19.6 mph N/A   Clear
11:58 AM 48.9 °F - 28.0 °F 44% 30.08 in 10.0 mi NW 12.7 mph 18.4 mph N/A   Clear
12:58 PM 51.1 °F - 28.0 °F 41% 30.06 in 10.0 mi Variable 4.6 mph 20.7 mph N/A   Clear
1:58 PM 53.1 °F - 28.0 °F 38% 30.04 in 10.0 mi NW 12.7 mph 17.3 mph N/A   Clear
2:58 PM 51.1 °F - 27.0 °F 39% 30.04 in 10.0 mi NW 9.2 mph - N/A   Clear
3:58 PM 52.0 °F - 27.0 °F 38% 30.03 in 10.0 mi West 6.9 mph - N/A   Clear
4:58 PM 51.1 °F - 27.0 °F 39% 30.03 in 10.0 mi NW 8.1 mph - N/A   Clear
5:58 PM 48.2 °F - 28.4 °F 46% 30.04 in 10.0 mi NW 8.1 mph - N/A   Clear
6:58 PM 44.1 °F 39.5 °F 30.0 °F 58% 30.08 in 10.0 mi NW 8.1 mph - N/A   Clear
7:58 PM 44.1 °F 40.1 °F 30.9 °F 60% 30.09 in 10.0 mi NNW 6.9 mph - N/A   Clear
8:58 PM 42.1 °F 37.7 °F 30.9 °F 65% 30.10 in 10.0 mi North 6.9 mph - N/A   Clear
9:58 PM 39.2 °F 37.0 °F 30.2 °F 70% 30.11 in 10.0 mi North 3.5 mph - N/A   Clear
10:58 PM 36.0 °F - 33.1 °F 89% 30.11 in 10.0 mi Calm Calm - N/A   Clear
11:58 PM 35.1 °F - 32.0 °F 89% 30.10 in 10.0 mi Calm Calm - N/A   Clear